Location: ?????????
(54.7630°N, 39.4991°E)
Time: 15:19:14
(UTC+00:00)

Cosmos 2251 Rocket - Pass Details

Date: 14 April 2026
Orbit: 760 x 788 km, 74.0° (Epoch: 16 May)

Event Time Altitude Azimuth Distance (km) Brightness Sun altitude
Rises 21:11:29 0° 331° (NNW) 3,269 7.8 -25.5°
Reaches altitude 10° 21:13:53 10° 330° (NNW) 2,341 6.8 -25.6°
Maximum altitude 21:19:11 74° 247° (WSW) 819 3.4 -25.6°
Enters shadow 21:19:21 73° 230° (SW) 821 3.4 -25.6°
